Regional Weather Roundup
Issued by NWS Cleveland, OH

Home | Current Version | Previous Version | Graphics & Text | Print | Product List | Glossary On
Versions: 1 2 3 4 5 6 7 8 9 10 11 12 13 14 15 16 17 18 19 20 21 22 23 24 25 26 27 28 29 30 31 32 33 34 35 36 37 38 39 40 41 42 43 44 45 46 47 48 49 50
000
ASUS41 KCLE 132210
RWRCLE
OHIO REGIONAL WEATHER ROUNDUP
NATIONAL WEATHER SERVICE CLEVELAND, OH
600 PM EDT SUN JUL 13 2014

NOTE: "FAIR" INDICATES FEW OR NO CLOUDS BELOW 12,000 FEET WITH NO
SIGNIFICANT WEATHER AND/OR OBSTRUCTIONS TO VISIBILITY.

OHZ001>008-015>018-024>027-034-035-043-044-132300-
   NORTHWEST OHIO

CITY           SKY/WX    TMP DP  RH WIND       PRES   REMARKS
DEFIANCE       MOSUNNY   84  62  47 VRB6      29.89S
FINDLAY        MOSUNNY   86  66  51 W15       29.88S
TOLEDO EXPRESS MOSUNNY   83  62  49 W10       29.87S
TOLEDO EXEC    MOSUNNY   86  62  44 W12       29.87S
LIMA           MOSUNNY   85  67  54 W14       29.90F
$$

OHZ009>014-019>023-028>033-038-089-132300-
   NORTHEAST OHIO

CITY           SKY/WX    TMP DP  RH WIND       PRES   REMARKS
CLE-HOPKINS    PTSUNNY   82  68  62 W8        29.89S
CLE-LAKEFRONT  MOSUNNY   78  69  73 SW7       29.86S
CUY CO. ARPT   PTSUNNY   81  68  65 W16       29.89S
LORAIN-ELYRIA  MOSUNNY   84  68  58 NW6       29.88S
ASHTABULA      MOSUNNY   79  66  64 NW10      29.88F
AKRON-CANTON   PTSUNNY   84  69  60 W10       29.89R
WOOSTER        PTSUNNY   84  68  58 NW13      29.90R
MANSFIELD      MOSUNNY   85  67  54 W13       29.91S
YOUNGSTOWN     PTSUNNY   80  70  71 NW10      29.90R
$$

OHZ042-051>053-060>062-070>072-077>081-132300-
  SOUTHWEST OHIO

CITY           SKY/WX    TMP DP  RH WIND       PRES   REMARKS
CINC-COVINGTON CLOUDY    80  70  71 W12G17    29.93F
CINC-LUNKEN    PTSUNNY   79  72  79 CALM      29.93S
HAMILTON       CLOUDY    79  70  74 S9G20     29.93R THUNDER
DAYTON         CLOUDY    82  70  66 NW8       29.92F THUNDER
WRIGHT-PAT AFB PTSUNNY   82  74  76 W7        29.91S
DAYTON GENERAL MOSUNNY   87  69  54 W10       29.91S HX  91
WILMINGTON     PTSUNNY   79  68  69 SW18      29.93S
$$

OHZ036-037-039>041-045>050-054>059-063>069-073>076-082>088-132300-
  CENTRAL AND SOUTHEAST OHIO

CITY           SKY/WX    TMP DP  RH WIND       PRES   REMARKS
COLUMBUS       PTSUNNY   88  69  53 NW14      29.89S HX  92
OSU AIRPORT    PTSUNNY   85  70  60 W13       29.90S
BOLTON FIELD   CLOUDY    75  68  78 S12G30    29.92R
RICKENBACK AFB TSTM      79  67  67 W10G43    29.93R VSB 3/4
NEWARK         CLOUDY    76  68  76 SW13G20   29.91R
MARION         MOSUNNY   86  66  51 W15       29.90S
LANCASTER      TSTM      74  71  91 S6        29.93S FOG
ZANESVILLE     LGT RAIN  80  71  74 CALM      29.92R
NEW PHILLY     MOSUNNY   83  72  69 SW8       29.91R
$$


USA.gov is the U.S. government's official web portal to all federal, state and local government web resources and services.